Location: Zagreb
(45.8000°N, 16.0000°E)
Time: 03:07:29
(UTC+01:00)

S-56A Canister/Altair - Pass Details

Date: 02 October 2020
Orbit: 633 x 2499 km, 38.9° (Epoch: 25 October)

Event Time Altitude Azimuth Distance (km) Brightness Sun altitude
Rises 21:24:25 0° 282° (WNW) 5,853 13.1 -29.7°
Reaches altitude 10° 21:30:26 10° 265° (W) 4,531 12.1 -30.6°
Maximum altitude 21:36:52 16° 232° (SW) 3,599 11.1 -31.6°
Drops below altitude 10° 21:42:17 10° 198° (SSW) 3,664 10.8 -32.4°
Enters shadow 21:42:37 - 196° (SSW) 3,699 10.8 -32.4°
